EW7528 Weather Reports


time (UTC)temp
C
wind
direction
speed
KPH
gust
KPH
rain 1hr
cm
rain 24hr
cm
rain mn
cm
humidity
%
barometer
mb
20260507104530 15 344 3.2 12.9 0.00 0.00 0.00 59 1015.7
20260507104029 16 9 1.6 11.3 0.00 0.00 0.00 59 1015.6
20260507103529 16 5 1.6 11.3 0.00 0.00 0.00 61 1015.7
20260507103029 15 338 3.2 11.3 0.00 0.00 0.00 62 1015.7
20260507102527 16 24 1.6 9.7 0.00 0.00 0.00 61 1015.6
20260507102027 15 349 1.6 11.3 0.00 0.00 0.00 65 1015.6
20260507101525 15 15 3.2 11.3 0.00 0.00 0.00 68 1015.7
20260507101027 15 348 3.2 11.3 0.00 0.00 0.00 66 1015.5
20260507100525 15 21 3.2 11.3 0.00 0.00 0.00 64 1015.7
20260507100025 15 355 3.2 14.5 0.00 0.00 0.00 65 1015.7
20260507095525 15 24 4.8 14.5 0.00 0.00 0.00 66 1015.6
20260507095245 15 5 4.8 12.9 0.00 0.00 0.00 66 1015.6
20260507094525 15 344 3.2 12.9 0.00 0.00 0.00 65 1015.6
20260507094026 15 355 3.2 11.3 0.00 0.00 0.00 65 1015.5
20260507093522 15 355 3.2 11.3 0.00 0.00 0.00 67 1015.4
20260507093020 15 355 1.6 11.3 0.00 0.00 0.00 70 1015.5
20260507092521 14 330 3.2 11.3 0.00 0.00 0.00 70 1015.3
20260507092327 14 15 3.2 11.3 0.00 0.00 0.00 68 1015.4
20260507092225 14 349 3.2 12.9 0.00 0.00 0.00 67 1015.4
20260507091021 14 355 3.2 12.9 0.00 0.00 0.00 70 1015.4
20260507090523 13 355 1.6 8.0 0.00 0.00 0.00 70 1015.3
20260507090021 13 355 3.2 12.9 0.00 0.00 0.00 69 1015.3
20260507085746 13 341 4.8 12.9 0.00 0.00 0.00 71 1015.3
20260507085019 13 43 4.8 12.9 0.00 0.00 0.00 72 1015.2
20260507084519 13 344 6.4 14.5 0.00 0.00 0.00 71 1015.2
20260507084019 13 0 6.4 16.1 0.00 0.00 0.00 71 1015.1
20260507083517 13 327 4.8 16.1 0.00 0.00 0.00 73 1015.2
20260507083015 13 348 3.2 12.9 0.00 0.00 0.00 74 1015.2
20260507082513 12 355 4.8 14.5 0.00 0.00 0.00 74 1015.3
20260507082237 12 339 4.8 14.5 0.00 0.00 0.00 74 1015.3
20260507081513 12 0 4.8 9.7 0.00 0.00 0.00 77 1015.2
20260507081012 12 355 4.8 12.9 0.00 0.00 0.00 77 1015.3
20260507080512 12 347 4.8 12.9 0.00 0.00 0.00 78 1015.4
20260507080012 12 355 4.8 12.9 0.00 0.00 0.00 80 1015.2
20260507075512 11 343 4.8 12.9 0.00 0.00 0.00 80 1015.2
20260507075232 11 321 1.6 8.0 0.00 0.00 0.00 82 1015.2
20260507074511 11 11 1.6 8.0 0.00 0.00 0.00 83 1015.1
20260507074238 11 350 3.2 12.9 0.00 0.00 0.00 83 1015.1
20260507073735 11 348 4.8 14.5 0.00 0.00 0.00 83 1015.1
20260507073228 11 355 3.2 14.5 0.00 0.00 0.00 83 1015.2
20260507072506 11 348 4.8 12.9 0.00 0.00 0.00 83 1015.1
20260507072005 10 348 4.8 16.1 0.00 0.00 0.00 83 1015.1
20260507071950 10 344 3.2 16.1 0.00 0.00 0.00 83 1015.0
20260507071005 10 350 3.2 12.9 0.00 0.00 0.00 84 1015.0
20260507070503 10 342 3.2 12.9 0.00 0.00 0.00 84 1015.0
20260507070003 10 330 1.6 8.0 0.00 0.00 0.00 85 1015.1
20260507065502 10 350 3.2 8.0 0.00 0.00 0.00 85 1014.9
20260507065003 10 33 3.2 8.0 0.00 0.00 0.00 85 1015.0
20260507064500 10 355 3.2 3.2 0.00 0.00 0.00 87 1015.0
20260507063925 10 355 3.2 9.7 0.00 0.00 0.00 87 1014.9
20260507063116 10 347 3.2 8.0 0.00 0.00 0.00 87 1014.8
20260507062610 9 313 1.6 6.4 0.00 0.00 0.00 88 1014.7
20260507062104 9 347 1.6 6.4 0.00 0.00 0.00 88 1014.7
20260507061824 9 348 1.6 6.4 0.00 0.00 0.00 88 1014.8
20260507061053 9 349 0.0 4.8 0.00 0.00 0.00 89 1014.8
20260507060546 8 348 1.6 6.4 0.00 0.00 0.00 89 1014.7
20260507060041 8 348 1.6 6.4 0.00 0.00 0.00 89 1014.8
20260507055536 8 345 1.6 6.4 0.00 0.00 0.00 89 1014.7
20260507055246 8 348 1.6 6.4 0.00 0.00 0.00 89 1014.6
20260507054522 8 351 1.6 6.4 0.00 0.00 0.00 89 1014.6
20260507054240 8 355 1.6 4.8 0.00 0.00 0.00 89 1014.5
20260507053511 8 350 1.6 4.8 0.00 0.00 0.00 89 1014.5
20260507053005 8 348 1.6 4.8 0.00 0.00 0.00 89 1014.5
20260507052501 8 11 1.6 4.8 0.00 0.00 0.00 89 1014.5
20260507051957 8 0 1.6 6.4 0.00 0.00 0.00 89 1014.4
20260507051456 8 0 1.6 6.4 0.00 0.00 0.00 89 1014.4
20260507050954 8 5 1.6 4.8 0.00 0.00 0.00 89 1014.4
20260507050711 8 9 1.6 4.8 0.00 0.00 0.00 88 1014.3
20260507045950 8 355 1.6 4.8 0.00 0.00 0.00 88 1014.2
20260507045449 8 5 1.6 6.4 0.00 0.00 0.00 88 1014.3
20260507045218 8 5 1.6 6.4 0.00 0.00 0.00 88 1014.2
20260507044713 8 17 1.6 3.2 0.00 0.00 0.00 88 1014.1
20260507043948 8 5 1.6 4.8 0.00 0.00 0.00 88 1014.1
20260507043448 8 5 1.6 4.8 0.00 0.00 0.00 87 1014.0
20260507043433 8 5 0.0 4.8 0.00 0.00 0.00 87 1014.0
20260507042447 8 5 1.6 4.8 0.00 0.00 0.00 87 1013.9
20260507041946 8 17 1.6 4.8 0.00 0.00 0.00 86 1013.9
20260507041446 8 5 1.6 4.8 0.00 0.00 0.00 86 1013.8
20260507040946 8 11 3.2 8.0 0.00 0.00 0.00 85 1013.9
20260507040445 8 17 4.8 8.0 0.00 0.00 0.00 84 1013.9
20260507035942 8 9 3.2 6.4 0.00 0.00 0.00 83 1013.9
20260507035442 9 350 3.2 6.4 0.00 0.00 0.00 83 1013.9
20260507034942 9 17 3.2 6.4 0.00 0.00 0.00 82 1013.8
20260507034435 9 351 4.8 9.7 0.00 0.00 0.00 82 1013.7
20260507033930 9 355 4.8 12.9 0.00 0.00 0.00 82 1013.7
20260507033908 9 42 4.8 12.9 0.00 0.00 0.00 82 1013.6
20260507032930 9 9 3.2 9.7 0.00 0.00 0.00 81 1013.6
20260507032917 9 33 3.2 9.7 0.00 0.00 0.00 81 1013.5
20260507031930 9 84 1.6 8.0 0.00 0.00 0.00 81 1013.5
20260507031431 9 20 3.2 8.0 0.00 0.00 0.00 81 1013.5
20260507030930 9 25 3.2 9.7 0.00 0.00 0.00 82 1013.4
20260507030431 9 0 4.8 11.3 0.00 0.00 0.00 82 1013.3
20260507025930 9 342 4.8 12.9 0.00 0.00 0.00 82 1013.3
20260507025430 9 11 3.2 12.9 0.00 0.00 0.00 84 1013.3
20260507024931 9 355 3.2 9.7 0.00 0.00 0.00 85 1013.3
20260507024921 9 355 4.8 12.9 0.00 0.00 0.00 85 1013.3
20260507024156 9 347 4.8 12.9 0.00 0.00 0.00 85 1013.2
20260507023430 9 355 4.8 9.7 0.00 0.00 0.00 86 1013.3
20260507022929 9 38 4.8 8.0 0.00 0.00 0.00 86 1013.3
20260507022430 9 14 3.2 6.4 0.00 0.00 0.00 86 1013.2
20260507021928 9 5 3.2 6.4 0.00 0.00 0.00 86 1013.2
20260507021428 9 5 3.2 11.3 0.00 0.00 0.00 86 1013.1
20260507020927 9 17 3.2 11.3 0.00 0.00 0.00 86 1013.2
20260507020425 9 5 3.2 6.4 0.00 0.00 0.00 86 1013.1
20260507015926 10 0 3.2 8.0 0.00 0.00 0.00 86 1013.0
20260507015426 10 350 3.2 8.0 0.00 0.00 0.00 85 1012.9
20260507014926 10 10 4.8 8.0 0.00 0.00 0.00 85 1012.9
20260507014426 10 23 4.8 11.3 0.00 0.00 0.00 85 1012.9
20260507013926 10 5 4.8 11.3 0.00 0.00 0.00 85 1012.9
20260507013428 10 20 4.8 9.7 0.00 0.00 0.00 85 1012.8
20260507012924 10 0 4.8 9.7 0.00 0.00 0.00 84 1012.9
20260507012424 10 36 4.8 8.0 0.00 0.00 0.00 84 1012.9
20260507011925 10 336 4.8 12.9 0.00 0.00 0.00 84 1012.8
20260507011424 10 342 4.8 12.9 0.00 0.00 0.00 84 1012.8
20260507010923 10 355 4.8 12.9 0.00 0.00 0.00 83 1012.9
20260507010423 10 0 4.8 12.9 0.00 0.00 0.00 83 1012.8
20260507005926 10 338 6.4 12.9 0.00 0.00 0.00 83 1012.8
20260507005424 10 349 6.4 14.5 0.00 0.00 0.00 83 1012.8
20260507004923 10 349 4.8 14.5 0.00 0.00 0.00 82 1012.7
20260507004417 10 319 4.8 14.5 0.00 0.00 0.00 82 1012.7
20260507004142 10 351 4.8 14.5 0.00 0.00 0.00 82 1012.6
20260507003623 10 5 3.2 8.0 0.00 0.00 0.00 82 1012.6
20260507003121 10 68 4.8 8.0 0.00 0.00 0.00 81 1012.7
20260507002612 11 0 4.8 16.1 0.00 0.00 0.00 81 1012.7
20260507001847 11 351 4.8 16.1 0.00 0.00 0.00 80 1012.6
20260507001342 11 5 4.8 14.5 0.00 0.00 0.00 80 1012.6
20260507000836 11 348 4.8 14.5 0.00 0.00 0.00 80 1012.6
20260507000551 11 355 4.8 12.9 0.00 0.00 0.00 80 1012.6
20260507000045 11 355 4.8 12.9 0.00 0.00 0.00 79 1012.6
20260506235317 11 30 4.8 14.5 0.00 0.00 0.00 79 1012.6
20260506234813 11 347 4.8 14.5 0.00 0.00 0.00 79 1012.5
20260506234305 11 346 3.2 12.9 0.00 0.00 0.00 79 1012.5
20260506233759 11 326 3.2 12.9 0.00 0.00 0.00 78 1012.5
20260506233253 11 349 3.2 14.5 0.00 0.00 0.00 78 1012.4
20260506232748 11 347 4.8 14.5 0.00 0.00 0.00 78 1012.4
20260506232241 11 355 4.8 14.5 0.00 0.00 0.00 77 1012.3
20260506231735 11 0 6.4 14.5 0.00 0.00 0.00 77 1012.3
20260506231451 11 5 6.4 14.5 0.00 0.00 0.00 77 1012.3
20260506230723 11 344 6.4 14.5 0.00 0.00 0.00 76 1012.2
20260506230221 11 23 6.4 14.5 0.00 0.00 0.00 76 1012.1
20260506225722 11 0 6.4 14.5 0.00 0.00 0.00 76 1012.1
20260506225441 11 18 6.4 14.5 0.00 0.00 0.00 76 1012.2
20260506224723 11 351 6.4 14.5 0.00 0.00 0.00 76 1012.1
20260506224221 11 351 6.4 12.9 0.00 0.00 0.00 76 1012.1
20260506223723 11 341 4.8 16.1 0.00 0.00 0.00 76 1012.2
20260506223219 12 46 4.8 16.1 0.00 0.00 0.00 76 1012.1
20260506222720 12 339 4.8 14.5 0.00 0.00 0.00 76 1012.1
20260506222219 12 355 4.8 12.9 0.00 0.00 0.00 76 1012.1
20260506221719 12 0 3.2 12.9 0.00 0.00 0.00 76 1012.2
20260506221446 12 346 1.6 8.0 0.00 0.00 0.00 76 1012.1
20260506220717 12 348 1.6 6.4 0.00 0.00 0.00 76 1012.1
20260506220215 12 346 3.2 8.0 0.00 0.00 0.00 75 1012.1
20260506220205 12 344 3.2 8.0 0.00 0.00 0.00 75 1011.9
20260506215216 12 350 3.2 8.0 0.00 0.00 0.00 74 1012.0
20260506215202 12 346 3.2 12.9 0.00 0.00 0.00 74 1011.9
20260506214214 12 355 3.2 12.9 0.00 0.00 0.00 73 1011.9
20260506213708 12 0 3.2 12.9 0.00 0.00 0.00 73 1011.9
20260506213202 12 5 3.2 9.7 0.00 0.00 0.00 72 1011.9
20260506212656 12 0 3.2 12.9 0.00 0.00 0.00 72 1011.9
20260506212150 12 0 1.6 12.9 0.00 0.00 0.00 72 1011.9
20260506211644 12 5 0.0 6.4 0.00 0.00 0.00 73 1011.8
20260506211404 11 5 0.0 6.4 0.00 0.00 0.00 73 1011.7
20260506210632 11 5 0.0 3.2 0.00 0.00 0.00 74 1011.6
20260506210126 11 155 0.0 0.0 0.00 0.00 0.00 74 1011.7
20260506210105 11 155 0.0 0.0 0.00 0.00 0.00 74 1011.7
20260506205116 11 155 0.0 0.0 0.00 0.00 0.00 74 1011.6
20260506204608 11 155 0.0 0.0 0.00 0.00 0.00 74 1011.6
20260506204102 11 155 0.0 0.0 0.00 0.00 0.00 73 1011.6
20260506203556 11 155 0.0 0.0 0.00 0.00 0.00 73 1011.6
20260506203536 11 155 0.0 0.0 0.00 0.00 0.00 73 1011.6
20260506202544 11 155 0.0 0.0 0.00 0.00 0.00 73 1011.6
20260506202038 11 155 0.0 0.0 0.00 0.00 0.00 72 1011.7
20260506201531 12 155 0.0 0.0 0.00 0.00 0.00 72 1011.5
20260506201026 12 155 0.0 1.6 0.00 0.00 0.00 72 1011.5
20260506200524 12 155 0.0 1.6 0.00 0.00 0.00 73 1011.4
20260506200025 12 155 0.0 1.6 0.00 0.00 0.00 73 1011.4
20260506195522 12 155 0.0 3.2 0.00 0.00 0.00 72 1011.4
20260506195020 12 155 0.0 3.2 0.00 0.00 0.00 72 1011.3
20260506194518 12 155 0.0 3.2 0.00 0.00 0.00 72 1011.2
20260506194019 12 155 0.0 1.6 0.00 0.00 0.00 73 1011.2
20260506193743 12 155 0.0 1.6 0.00 0.00 0.00 73 1011.2
20260506193017 12 155 0.0 1.6 0.00 0.00 0.00 73 1011.1
20260506192742 12 155 0.0 0.0 0.00 0.00 0.00 73 1011.1
20260506192015 12 155 0.0 0.0 0.00 0.00 0.00 73 1011.1
20260506191510 12 155 0.0 0.0 0.00 0.00 0.00 73 1011.0
20260506191008 12 155 0.0 0.0 0.00 0.00 0.00 73 1010.9
20260506190506 12 155 0.0 1.6 0.00 0.00 0.00 73 1010.7
20260506190223 12 155 0.0 1.6 0.00 0.00 0.00 72 1010.7
20260506185502 12 156 0.0 0.0 0.00 0.00 0.00 72 1010.6
20260506185000 12 155 0.0 0.0 0.00 0.00 0.00 72 1010.6
20260506184458 12 155 0.0 0.0 0.00 0.00 0.00 72 1010.5
20260506183956 12 155 0.0 0.0 0.00 0.00 0.00 72 1010.5
20260506183456 12 155 0.0 0.0 0.00 0.00 0.00 73 1010.4
20260506182956 12 155 0.0 0.0 0.00 0.00 0.00 73 1010.3
20260506182455 12 155 0.0 1.6 0.00 0.00 0.00 73 1010.3
20260506181954 12 155 0.0 1.6 0.00 0.00 0.00 73 1010.2
20260506181450 12 157 0.0 1.6 0.00 0.00 0.00 72 1010.2
20260506180950 12 95 0.0 0.0 0.00 0.00 0.00 73 1010.2
20260506180709 12 95 0.0 0.0 0.00 0.00 0.00 72 1010.1
20260506175946 12 95 0.0 0.0 0.00 0.00 0.00 73 1010.2
20260506175444 12 96 0.0 0.0 0.00 0.00 0.00 72 1010.0
20260506174942 12 94 0.0 3.2 0.00 0.00 0.00 72 1010.1
20260506174442 12 94 0.0 3.2 0.00 0.00 0.00 71 1010.0
20260506174428 12 93 1.6 4.8 0.00 0.00 0.00 71 1009.9
20260506173441 12 93 1.6 6.4 0.00 0.00 0.00 69 1009.8
20260506172942 12 113 1.6 9.7 0.00 0.00 0.00 68 1009.7
20260506172702 12 28 1.6 9.7 0.00 0.00 0.00 67 1009.5
20260506171942 13 84 1.6 8.0 0.00 0.00 0.00 66 1009.6
20260506171443 13 86 1.6 12.9 0.00 0.00 0.00 67 1009.5
20260506170942 13 49 3.2 12.9 0.00 0.00 0.00 65 1009.6
20260506170444 13 103 3.2 16.1 0.00 0.00 0.00 66 1009.6
20260506170208 13 9 4.8 16.1 0.00 0.00 0.00 65 1009.6
20260506165442 13 55 4.8 14.5 0.00 0.00 0.00 64 1009.4
20260506164939 13 48 4.8 14.5 0.00 0.00 0.00 65 1009.4
20260506164440 13 71 3.2 9.7 0.00 0.00 0.00 65 1009.4
20260506163940 13 55 3.2 11.3 0.00 0.00 0.00 66 1009.5
20260506163440 13 20 3.2 11.3 0.00 0.00 0.00 65 1009.4
20260506162938 13 51 3.2 11.3 0.00 0.00 0.00 67 1009.5
20260506162433 13 355 3.2 11.3 0.00 0.00 0.00 65 1009.4
20260506161928 13 63 3.2 16.1 0.00 0.00 0.00 66 1009.4
20260506161423 13 11 4.8 16.1 0.00 0.00 0.00 65 1009.4
20260506160915 13 330 6.4 19.3 0.00 0.00 0.00 65 1009.5
20260506160411 13 18 6.4 19.3 0.00 0.00 0.00 64 1009.4
20260506155904 13 82 4.8 14.5 0.00 0.00 0.00 65 1009.4
20260506155357 13 96 3.2 14.5 0.00 0.00 0.00 66 1009.5
20260506154851 13 84 3.2 12.9 0.00 0.00 0.00 65 1009.5
20260506154345 13 336 3.2 16.1 0.00 0.00 0.00 65 1009.5
20260506154101 13 0 4.8 16.1 0.00 0.00 0.00 64 1009.4
20260506153333 13 5 4.8 17.7 0.00 0.00 0.00 63 1009.5
20260506152827 13 15 3.2 22.5 0.00 0.00 0.00 64 1009.5
20260506152321 13 35 6.4 22.5 0.00 0.00 0.00 62 1009.4
20260506151815 13 26 6.4 20.9 0.00 0.00 0.00 60 1009.4
20260506151310 14 154 4.8 14.5 0.00 0.00 0.00 62 1009.4
20260506150803 14 305 4.8 16.1 0.00 0.00 0.00 63 1009.2
20260506150515 14 17 6.4 16.1 0.00 0.00 0.00 61 1009.3
20260506145749 14 91 6.4 17.7 0.00 0.00 0.00 60 1009.3
20260506145243 14 65 6.4 17.7 0.00 0.00 0.00 62 1009.2
20260506144737 14 119 6.4 17.7 0.00 0.00 0.00 59 1009.1
20260506144233 14 35 4.8 14.5 0.00 0.00 0.00 58 1009.1
20260506143727 14 14 4.8 14.5 0.00 0.00 0.00 57 1009.1
20260506143220 14 61 6.4 17.7 0.00 0.00 0.00 58 1009.0
20260506142713 14 72 6.4 17.7 0.00 0.00 0.00 57 1009.1
20260506142209 14 11 6.4 24.1 0.00 0.00 0.00 58 1009.1
20260506141701 14 9 6.4 24.1 0.00 0.00 0.00 57 1009.1
20260506141156 14 17 6.4 16.1 0.00 0.00 0.00 58 1009.1
20260506140909 14 23 6.4 16.1 0.00 0.00 0.00 61 1009.2
20260506140403 14 342 6.4 14.5 0.00 0.00 0.00 63 1009.2
20260506135637 14 45 6.4 17.7 0.00 0.00 0.00 63 1009.2
20260506135132 15 41 8.0 17.7 0.00 0.00 0.00 65 1009.2
20260506134626 15 355 8.0 19.3 0.00 0.00 0.00 62 1009.0
20260506134119 15 0 8.0 19.3 0.00 0.00 0.00 62 1009.1
20260506133614 15 5 6.4 19.3 0.00 0.00 0.00 60 1009.0
20260506133327 15 5 6.4 19.3 0.00 0.00 0.00 62 1009.1
20260506132601 15 48 6.4 20.9 0.00 0.00 0.00 63 1009.0
20260506132327 15 39 8.0 20.9 0.00 0.00 0.00 62 1009.0
20260506131549 15 0 8.0 20.9 0.00 0.00 0.00 60 1008.9
20260506131249 15 335 9.7 25.7 0.00 0.00 0.00 62 1008.9
20260506131135 15 313 6.4 17.7 0.00 0.00 0.00 63 1008.8
20260506130040 15 78 8.0 25.7 0.00 0.00 0.00 61 1008.9
20260506125539 15 344 8.0 19.3 0.00 0.00 0.00 62 1008.8
20260506125039 15 16 6.4 19.3 0.00 0.00 0.00 62 1008.7
20260506124539 15 9 9.7 19.3 0.00 0.00 0.00 64 1008.7
20260506124039 15 5 9.7 19.3 0.00 0.00 0.00 64 1008.7
20260506123540 15 5 6.4 19.3 0.00 0.00 0.00 64 1008.7
20260506123040 15 347 6.4 19.3 0.00 0.00 0.00 66 1008.7
20260506122540 14 17 6.4 17.7 0.00 0.00 0.00 67 1008.6
20260506122040 14 5 6.4 17.7 0.00 0.00 0.00 65 1008.7
20260506121541 14 0 9.7 22.5 0.00 0.00 0.00 64 1008.6
20260506121039 14 9 9.7 22.5 0.00 0.00 0.00 60 1008.7
20260506120539 14 343 11.3 22.5 0.00 0.00 0.00 63 1008.7
20260506120039 14 319 11.3 24.1 0.00 0.00 0.00 60 1008.5
20260506115803 15 348 11.3 24.1 0.00 0.00 0.00 59 1008.6
20260506115037 15 346 12.9 25.7 0.00 0.00 0.00 61 1008.5
20260506114535 15 27 12.9 25.7 0.00 0.00 0.00 58 1008.6
20260506114035 15 5 11.3 25.7 0.00 0.00 0.00 64 1008.4
20260506113529 15 327 11.3 22.5 0.00 0.00 0.00 64 1008.4
20260506113248 15 41 9.7 22.5 0.00 0.00 0.00 65 1008.4
20260506112517 15 341 11.3 22.5 0.00 0.00 0.00 66 1008.4
20260506112013 15 24 9.7 20.9 0.00 0.00 0.00 65 1008.5
20260506111513 15 15 8.0 17.7 0.00 0.00 0.00 64 1008.4
20260506111013 15 20 6.4 16.1 0.00 0.00 0.00 66 1008.4
20260506110513 15 18 8.0 19.3 0.00 0.00 0.00 66 1008.3
20260506110010 14 36 8.0 19.3 0.00 0.00 0.00 66 1008.2
20260506105511 13 350 6.4 17.7 0.00 0.00 0.00 66 1008.4
20260506105010 13 336 6.4 14.5 0.00 0.00 0.00 66 1008.4